Location: Akkrum
(53.0502°N, 5.8309°E)
Time: 19:37:10
(UTC+00:00)

Daily predictions for brighter satellites

Satellite Brightness Start Highest point End
(mag) Time Altitude Azimuth Time Altitude Azimuth Time Altitude Azimuth
ATLAS 5 CENTAUR R/B 3.1 16:31:54 10° NW 16:34:30 30° NNE 16:40:27 10° ENE
Cosmos 2219 Rocket 2.6 16:33:58 10° NW 16:39:40 74° WSW 16:45:18 10° SSE
Cosmos 494 Rocket 4.0 16:36:41 10° NNW 16:41:47 61° ENE 16:46:51 10° SE
H-2A R/B 2.7 16:39:06 10° SSE 16:42:57 74° ENE 16:46:52 10° N
Cosmos 2227 Rocket 3.7 16:43:13 10° SE 16:46:34 16° E 16:49:55 10° ENE
Starlink T 3.7 16:44:15 10° SW 16:47:07 40° SSE 16:49:59 10° E
Starlink N 3.6 16:45:42 10° SW 16:48:34 40° SSE 16:51:27 10° E
NOSS 2-1 (C) 4.2 16:44:20 10° NW 16:49:03 63° NE 16:55:37 10° ESE
Starlink Q 3.6 16:47:25 10° SW 16:50:18 41° SSE 16:53:12 10° E
COSMOS 2428 3.3 16:44:38 10° NW 16:50:20 65° WSW 16:56:00 10° SSE
Starlink P 3.6 16:48:58 10° SW 16:51:52 42° SSE 16:54:43 10° E
NOSS 2-1 (D) 4.2 16:48:08 10° NW 16:52:53 66° NE 16:59:31 10° ESE
Ariane Rocket 4.4 16:50:04 10° E 16:53:13 17° NE 16:56:22 10° NNE
Starlink U 3.5 16:50:30 10° SW 16:53:25 43° SSE 16:56:13 11° E
Meteor 2-1 Rocket 4.3 16:48:23 10° N 16:53:47 52° ENE 16:59:10 10° SSE
PSLV R/B 4.0 16:49:50 10° NNE 16:53:53 60° ESE 16:57:55 10° S
Cosmos 1892 Rocket 4.0 16:49:50 10° SSW 16:54:17 67° WNW 16:58:45 10° N
Starlink B 3.5 16:52:03 10° SW 16:54:58 44° SSE 16:57:44 11° E
Cosmos 2298 Rocket 4.0 16:50:35 10° SSW 16:55:52 78° ESE 17:01:14 10° NNE
Starlink AR 3.2 16:53:28 10° SW 16:55:56 42° SSE 16:58:10 12° E
Cosmos 1812 Rocket 3.6 16:53:26 10° N 16:57:53 60° ENE 17:02:19 10° SSE
Meteor 2-10 Rocket 4.3 16:54:29 10° N 16:59:16 31° ENE 17:03:51 10° SE
Cosmos 1939 Rocket 4.1 16:58:02 10° ESE 17:00:59 21° ENE 17:03:59 10° NNE
Starlink D 3.4 17:00:14 10° SW 17:03:12 49° SSE 17:05:42 14° E
Starlink S 3.3 17:01:35 10° SW 17:04:33 49° SSE 17:06:58 14° E
COBE Rocket 4.2 17:00:02 10° N 17:05:11 79° WNW 17:10:22 10° SSW
Cosmos-2242 3.7 17:01:18 10° N 17:05:13 32° ENE 17:09:06 10° SE
Starlink C 3.3 17:03:27 10° SW 17:06:27 51° SSE 17:08:50 15° E
Starlink E 3.3 17:05:06 10° WSW 17:08:06 52° SSE 17:10:26 15° E
Starlink J 3.3 17:06:45 10° WSW 17:09:46 53° SSE 17:12:02 16° E
USA 234 4.4 17:03:41 10° SSE 17:09:56 47° SW 17:16:14 10° WNW
YAOGAN 1 3.2 17:07:02 10° SE 17:10:57 34° ENE 17:14:53 10° N
Starlink V 3.2 17:08:23 10° WSW 17:11:24 54° SSE 17:13:36 17° E
Cosmos 2184 Rocket 4.0 17:06:09 10° S 17:12:21 88° W 17:18:34 10° N
Starlink H 3.2 17:10:03 10° WSW 17:13:04 55° SSE 17:15:13 17° E
H-2A R/B 3.6 17:12:07 14° ENE 17:13:23 15° NE 17:16:08 10° NNE
Cosmos 2251 Rocket 4.2 17:09:00 10° NNW 17:13:47 34° NE 17:18:36 10° ESE
Starlink F 3.2 17:11:43 10° WSW 17:14:44 56° SSE 17:16:50 18° E
Starlink G 3.1 17:13:22 10° WSW 17:16:24 57° SSE 17:18:26 19° E
Starlink L 3.1 17:15:02 10° WSW 17:18:04 58° SSE 17:20:03 19° E
Starlink A 3.1 17:16:42 10° WSW 17:19:45 59° SSE 17:21:40 20° E
Cosmos 2154 Rocket 4.0 17:14:30 10° S 17:20:45 73° E 17:26:59 10° NNE
CSL-04 Debris 4.4 17:16:08 10° SE 17:21:16 47° ENE 17:26:27 10° N
Starlink R 3.1 17:18:23 10° WSW 17:21:26 60° SSE 17:23:18 21° E
Cosmos 1242 Rocket 2.5 17:18:15 10° SSW 17:21:46 82° WNW 17:25:23 10° NNE
ATLAS CENTAUR R/B 2.1 17:18:52 10° NW 17:22:46 34° NNE 17:25:05 19° E
Cosmos 1674 4.4 17:19:26 10° SW 17:22:50 33° WNW 17:26:15 10° N
Starlink K 3.1 17:20:02 10° WSW 17:23:05 61° SSE 17:24:53 22° E
Starlink M 3.0 17:21:40 10° WSW 17:24:44 62° SSE 17:26:28 23° E
USA 32 4.2 17:20:35 10° SSE 17:25:35 49° E 17:30:39 10° NNE
Cosmos 2082 Rocket 4.3 17:24:12 10° NW 17:27:21 15° NNW 17:30:30 10° NNE
ISS -1.3 17:27:17 10° SE 17:27:41 10° SE 17:28:04 10° SE
Cosmos 2150 Rocket 4.3 17:23:14 10° SW 17:28:22 68° WNW 17:33:33 10° NNE
Cosmos 1602 Rocket 3.5 17:24:16 10° S 17:28:40 84° E 17:33:03 10° NNE
CZ-4 R/B 1.4 17:28:09 10° SSE 17:32:10 62° ENE 17:36:18 10° N
Cosmos 1300 3.8 17:28:57 10° NNW 17:32:38 46° W 17:36:18 10° SSW
SMAP 4.5 17:28:28 10° S 17:32:52 42° W 17:37:18 10° NNW
Cosmos 2237 Rocket 2.5 17:27:41 10° NW 17:33:19 73° WSW 17:38:55 10° SSE
Cosmos 1610 Rocket 4.5 17:27:55 10° S 17:34:04 88° W 17:40:18 10° N
ATLAS CENTAUR R/B 4.0 17:29:18 10° WSW 17:35:09 87° NNW 17:48:22 17° ENE
COSMO-SKYMED 1 2.7 17:32:24 10° NNE 17:36:40 50° E 17:40:54 10° S
Cosmos 1295 Rocket 4.5 17:30:58 10° S 17:37:17 74° E 17:43:35 10° NNE
YAOGAN 6 2.8 17:34:30 10° S 17:38:11 75° WSW 17:41:52 10° NNW
Cosmos 1125 Rocket 3.5 17:33:22 10° SSW 17:38:36 90° E 17:43:51 10° NNE
Cosmos 2333 Rocket 4.4 17:33:47 10° NW 17:38:37 29° WSW 17:43:24 10° SSW
NOSS 2-1 (E) 4.4 17:34:31 10° NW 17:39:37 81° SW 17:46:47 10° SE
CZ-2D R/B 3.5 17:36:55 10° SE 17:40:34 44° ENE 17:44:16 10° N
Cosmos 1953 Rocket 4.2 17:37:00 10° SSE 17:41:04 35° E 17:44:25 14° NNE
Cosmos 1626 2.7 17:37:48 10° SSW 17:41:28 59° WNW 17:45:09 10° N
ADEOS Rocket 4.0 17:37:11 10° NNE 17:42:45 29° E 17:48:44 10° SSE
CZ-2C R/B 4.4 17:42:25 21° ENE 17:43:01 21° NE 17:47:07 10° N
Cosmos 1758 Rocket 3.5 17:41:38 10° S 17:45:52 59° E 17:50:07 10° NNE
Cosmos 2366 rocket 4.3 17:40:36 10° SSE 17:46:23 42° E 17:52:15 10° NNE
CZ-4 R/B 4.4 17:42:32 10° SSE 17:46:40 86° WSW 17:50:50 10° NNW
CSL-04 Rocket 3.6 17:41:37 10° SSE 17:47:05 71° ENE 17:52:38 10° NNW
Cosmos 1455 2.1 17:43:57 10° N 17:47:46 59° ENE 17:51:31 10° SSE
Envisat 3.9 17:43:14 10° S 17:48:12 52° W 17:53:11 10° NNW
Cosmos 1356 Rocket 4.0 17:44:56 10° N 17:48:36 33° ENE 17:49:34 29° E
ATLAS 5 CENTAUR R/B 2.8 17:46:20 10° W 17:50:33 38° NNW 17:53:53 18° NE
Cosmos 1626 Rocket 4.4 17:46:27 10° SSW 17:50:40 50° WNW 17:54:54 10° N
Cosmos 962 Rocket 4.4 17:46:51 10° S 17:52:57 80° E 17:59:11 10° NNE
ERBS 3.1 17:52:16 10° SSW 17:55:19 34° SE 17:55:37 33° SE
SL-16 R/B 2.1 17:49:58 10° NNW 17:55:40 75° NE 18:01:21 10° SE
Starlink AS 2.6 17:54:35 10° WSW 17:57:31 80° SSE 17:57:52 64° E
Starlink BA 2.6 17:54:49 10° WSW 17:57:45 80° S 17:58:06 65° E
Starlink AU 2.6 17:55:03 10° WSW 17:57:59 81° SSE 17:58:19 65° ESE
CZ-4C R/B 4.5 17:51:39 10° NW 17:58:09 38° WSW 18:05:26 10° S
Starlink AQ 2.6 17:55:14 10° WSW 17:58:11 81° S 17:58:33 65° E
Starlink AT 2.5 17:55:17 10° WSW 17:58:13 81° SSE 17:58:33 66° ESE
Starlink BB 2.5 17:55:29 10° WSW 17:58:26 81° SSE 17:58:45 66° ESE
Starlink BC 2.5 17:55:44 10° WSW 17:58:39 81° S 17:58:58 67° ESE
Starlink BK 2.5 17:55:56 10° WSW 17:58:52 81° S 17:59:11 67° ESE
Starlink AY 2.5 17:56:10 10° WSW 17:59:06 81° S 17:59:24 68° ESE
Starlink AW 2.5 17:56:24 10° WSW 17:59:20 81° S 17:59:37 69° ESE
Okean-O 3.9 17:55:15 10° S 17:59:28 43° W 18:03:44 10° NNW
Starlink BJ 2.5 17:56:38 10° WSW 17:59:34 81° SSE 17:59:50 69° ESE
Starlink AV 2.5 17:56:50 10° WSW 17:59:46 81° S 18:00:03 70° ESE
Starlink BD 2.5 17:57:05 10° WSW 18:00:01 82° S 18:00:16 70° ESE
Starlink BE 2.5 17:57:18 10° WSW 18:00:15 82° S 18:00:32 69° ESE
Starlink BM 2.5 17:57:32 10° WSW 18:00:28 82° S 18:00:43 71° ESE
SKYMED 3 4.5 17:56:12 10° NNE 18:00:35 83° ESE 18:04:55 10° SSW
Starlink AX 2.5 17:57:45 10° WSW 18:00:41 82° S 18:00:56 72° ESE
Starlink BH 2.5 17:57:59 10° WSW 18:00:55 82° S 18:01:09 72° ESE
Starlink AZ 2.5 17:58:12 10° WSW 18:01:08 82° S 18:01:21 73° ESE
Starlink BG 2.5 17:58:26 10° WSW 18:01:22 82° SSE 18:01:34 73° ESE
Starlink BF 2.5 17:58:38 10° WSW 18:01:35 82° S 18:01:47 74° ESE
Starlink BL 2.5 17:58:51 10° WSW 18:01:48 82° S 18:02:02 73° ESE
Starlink AH 2.5 17:59:06 10° WSW 18:02:02 82° S 18:02:13 75° ESE
Starlink AC 2.5 17:59:20 10° WSW 18:02:16 82° S 18:02:26 76° ESE
Starlink X 2.5 17:59:33 10° WSW 18:02:29 83° SSE 18:02:39 76° ESE
Starlink AE 2.5 17:59:43 10° WSW 18:02:42 83° S 18:02:54 74° ESE
Cosmos 724 4.3 17:57:00 10° SSW 18:02:53 66° SE 18:06:12 26° NE
Starlink Z 2.5 18:00:01 10° WSW 18:02:56 83° S 18:03:05 77° ESE
Starlink AK 2.5 18:00:13 10° WSW 18:03:09 83° S 18:03:18 78° ESE
Starlink AL 2.5 18:00:27 10° WSW 18:03:22 83° S 18:03:31 78° ESE
Starlink AD 2.5 18:00:40 10° WSW 18:03:36 83° S 18:03:44 79° ESE
Starlink Y 2.5 18:01:06 10° W 18:04:03 83° S 18:04:09 80° ESE
Starlink AG 2.5 18:01:20 10° W 18:04:16 83° S 18:04:22 80° SE
Starlink W 2.5 18:01:32 10° W 18:04:29 83° S 18:04:37 79° ESE
Starlink AJ 2.5 18:01:47 10° W 18:04:43 83° SSE 18:04:48 81° SE
Meteor 1-21 Rocket 4.1 17:59:28 10° S 18:05:05 82° E 18:10:51 10° NNE
Cosmos 2219 3.1 17:59:33 10° SSW 18:05:10 79° ESE 18:09:13 20° NE
Starlink AM 2.5 18:02:15 10° W 18:05:11 84° SSE 18:05:15 82° SE
Cosmos 407 Rocket 4.4 18:00:41 10° NNW 18:05:16 28° NE 18:05:27 28° NE
Starlink AP 2.5 18:02:28 10° W 18:05:24 84° S 18:05:28 82° SE
Starlink AA 2.5 18:02:41 10° W 18:05:37 84° S 18:05:40 83° SE
Starlink AF 2.5 18:02:54 10° W 18:05:50 84° S 18:05:53 83° SE
Cosmos 1328 4.0 18:02:04 10° SSE 18:05:55 45° E 18:06:16 44° ENE
Starlink AB 2.5 18:03:08 10° W 18:06:04 84° S 18:06:06 84° SSE
Starlink AN 2.6 18:03:21 10° W 18:06:17 84° S 18:06:18 84° SSE
Cosmos 2082 4.2 18:02:31 10° S 18:07:39 38° ESE 18:08:58 33° ENE
Cosmos 1603 4.2 18:02:28 10° NNW 18:07:47 38° NE 18:09:08 33° ENE
IRS-1A Rocket 4.4 18:02:22 10° SE 18:07:54 52° ENE 18:13:22 10° N
Cosmos 1727 Rocket 3.9 18:02:09 10° N 18:08:20 62° ENE 18:14:26 10° SSE
SJ 16-02 4.0 18:07:20 10° WNW 18:09:11 12° NW 18:11:03 10° NNW
Cosmos 1825 Rocket 3.4 18:06:17 10° S 18:10:37 89° ESE 18:14:59 10° NNE
Cosmos 1607 4.3 18:06:59 10° WSW 18:13:03 60° NW 18:17:11 21° NE
USA 267 3.3 18:12:10 28° ENE 18:15:51 76° NNW 18:22:23 10° W
Cosmos 2297 Rocket 2.1 18:11:37 10° SSW 18:17:14 72° ESE 18:20:19 28° NE
MOS 1 4.4 18:15:28 22° SE 18:18:54 50° ENE 18:24:23 10° N
SL-8 Rocket 3.9 18:15:57 10° S 18:22:16 87° E 18:28:36 10° N
Starlink T 3.3 18:19:27 10° W 18:22:00 59° W 18:22:00 59° W
Starlink N 3.4 18:20:55 10° W 18:23:25 57° W 18:23:25 57° W
SKYMED 2 4.1 18:20:27 10° N 18:24:45 60° WNW 18:29:01 10° SSW
Starlink Q 3.5 18:22:40 10° W 18:25:06 54° W 18:25:06 54° W
USA 116 4.3 18:27:57 36° SSW 18:27:57 36° SSW 18:29:54 10° SSW
Starlink P 3.6 18:24:14 10° W 18:26:36 51° W 18:26:36 51° W
Cosmos 2341 Rocket 4.3 18:21:12 10° SSW 18:27:33 69° WNW 18:33:54 10° N
Starlink U 3.7 18:25:47 10° W 18:28:06 49° W 18:28:06 49° W
Cosmos 2227 Rocket 2.1 18:24:05 10° SSW 18:29:44 79° ESE 18:32:19 34° NE
Starlink B 3.8 18:27:22 10° W 18:29:38 46° W 18:29:38 46° W
Ariane Rocket 2.8 18:26:21 10° SSE 18:31:24 76° ENE 18:36:31 10° NNW
Cosmos 1939 Rocket 3.6 18:31:47 10° S 18:35:37 52° W 18:39:32 10° NNW
Cosmos 2221 3.9 18:31:54 10° N 18:33:55 26° N 18:33:55 26° N
SJ-11-01 4.1 18:37:22 54° SE 18:38:20 73° ENE 18:43:04 10° NNW
Starlink D 4.3 18:35:40 10° W 18:37:41 37° W 18:37:41 37° W
ARGOS 3.3 18:40:06 49° NE 18:40:06 49° NE 18:44:52 10° N
Starlink S 4.4 18:36:58 10° W 18:38:53 35° W 18:38:53 35° W
Meteor 2-10 Rocket 4.4 18:36:24 10° NNW 18:41:36 50° W 18:46:34 10° S
Cosmos 1943 3.4 18:37:30 10° NNW 18:42:49 48° NE 18:42:49 48° NE
Cosmos 1703 3.4 18:41:56 10° SSW 18:45:38 70° WSW 18:45:38 70° WSW
YAOGAN 1 4.3 18:43:07 10° SSW 18:47:03 34° W 18:51:02 10° NNW
H-2A R/B 2.1 18:52:44 57° NNE 18:52:44 57° NNE 18:57:00 10° N
Cosmos 44 3.7 18:48:51 10° SSW 18:52:11 46° S 18:52:11 46° S
Cosmos 2251 Rocket 4.3 18:51:11 10° NNW 18:56:20 52° WSW 19:01:28 10° S
Cosmos 2218 Rocket 4.3 18:51:14 10° SSW 18:57:33 67° WNW 19:03:58 10° N
SL-08 R/B 4.4 18:51:25 10° S 18:57:44 89° ESE 19:04:13 10° N
ATLAS CENTAUR R/B 2.2 18:57:53 10° NW 19:01:19 47° W 19:01:19 47° W
ISS -1.0 19:00:37 10° SW 19:01:16 14° SW 19:01:16 14° SW
CZ-4 R/B 4.3 19:04:52 10° SW 19:07:37 17° W 19:10:25 10° NW
Cosmos 614 Rocket 4.5 19:04:05 10° NNW 19:07:56 49° N 19:07:56 49° N
Cosmos 2082 Rocket 4.4 19:11:23 10° NNW 19:13:45 13° N 19:13:45 13° N
Cosmos 2123 Rocket 4.3 19:08:51 10° N 19:13:50 53° NNE 19:13:50 53° NNE
CZ-2C R/B 3.6 19:23:28 55° NNW 19:23:28 55° NNW 19:27:51 10° NNW
ADEOS Rocket 3.4 19:22:20 10° NNE 19:28:44 73° WNW 19:35:50 10° SSW
ATLAS 5 CENTAUR R/B 3.7 19:32:20 10° NW 19:35:25 25° NNW 19:35:25 25° NNW
SL-16 R/B 4.3 19:34:49 10° NW 19:39:15 24° WSW 19:43:39 10° SSW
NOSS 3-3 (A) 4.3 19:32:58 10° NW 19:40:14 84° NE 19:40:14 84° NE
NOSS 3-3 (C) 4.3 19:33:04 10° NW 19:40:18 84° NE 19:40:18 84° NE
USA 267 3.6 19:59:31 59° NNW 19:59:31 59° NNW 20:05:06 10° WNW
Cosmos 2297 Rocket 3.7 19:56:48 10° WSW 20:01:49 31° NW 20:02:10 31° NNW
Cosmos 2227 Rocket 3.9 20:09:32 10° W 20:14:11 29° NW 20:14:11 29° NW
H-2A R/B 4.4 20:33:20 19° WNW 20:33:20 19° WNW 20:35:46 10° NW
